Location: *
(40.7765°S, 106.5327°E)
Time: 12:01:04
(UTC+00:00)

Cosmos 2278 - Visible Passes

Search period start: 26 September 2022 00:00
Search period end: 06 October 2022 00:00
Orbit: 840 x 852 km, 71.1° (Epoch: 25 September)

Date Brightness Start Highest point End Pass type
(mag) Time Alt. Az. Time Alt. Az. Time Alt. Az.
26 Sep 5.9 11:42:04 10° SW 11:46:56 29° WNW 11:51:45 10° NNW visible
27 Sep 5.9 11:28:18 10° SW 11:33:12 30° WNW 11:38:05 10° NNW visible
28 Sep 5.9 11:14:31 10° SW 11:19:28 30° WNW 11:24:24 10° NNW visible
